Retour au catalogue

JILIN-1 GAOFEN 07B 03 XING

ActifScienceSSO
NORAD 68695·PAYLOAD·🇨🇳 China
Ce nom de satellite n'a pas encore été confirmé par des sources officielles.

Lancé Apr 14, 2026 depuis Jiuquan Satellite Launch Center

Loading…

Prochains Passages (prochaines 24 heures)

TLE

FraisSource: Space-Track

Époque: Sep 14, 2026, 15:24 UTC

1 68695U 26080E   26257.64198719  .00004171  00000-0  26752-3 0  9995
2 68695  97.6570 333.1035 0017312 124.1415 236.1459 15.08938394 23117

Suivez JILIN-1 GAOFEN 07B 03 XING en temps réel avec AllMySat

Download on the App Store